カタログに戻る

CZ-6A DEB

運用中SSO
NORAD 56608·DEBRIS·🇨🇳 China

打ち上げ Nov 11, 2022 から Taiyuan Satellite Launch Center

Loading…

次のパス (今後24時間)

TLE

最新Source: Space-Track

元期: Sep 14, 2026, 00:14 UTC

1 56608U 22151AEG 26257.00990830  .00001043  00000-0  54310-3 0  9991
2 56608  98.8901 280.5250 0033704  68.6200 291.8565 14.16529965175145

AllMySatでCZ-6A DEBをリアルタイム追跡

Download on the App Store